Location: Kuala Lumpur International
(3.1298°N, 101.5524°E)
Time: 02:08:21
(UTC+00:00)

USA 267 - Pass Details

Date: 05 August 2024
Orbit: 1096 x 1111 km, 123.1° (Epoch: 09 September)

Event Time Altitude Azimuth Distance (km) Brightness Sun altitude
Exits shadow 12:24:15 19° 119° (ESE) 2,356 4.4 -14.5°
Maximum altitude 12:28:47 49° 53° (NE) 1,388 3.6 -15.5°
Drops below altitude 10° 12:34:59 10° 340° (NNW) 2,943 6.0 -17.0°
Sets 12:37:32 0° 335° (NNW) 3,901 6.8 -17.6°
